Location: Kawakawa
(35.3830°S, 174.0670°E)
Time: 09:31:48
(UTC+13:00)

Tiros 1 - All Passes

Search period start: 12 December 2019 00:00
Search period end: 22 December 2019 00:00
Orbit: 630 x 664 km, 48.4° (Epoch: 11 December)

Date Brightness Start Highest point End Pass type
(mag) Time Alt. Az. Time Alt. Az. Time Alt. Az.
12 Dec - 01:06:07 10° SW 01:10:58 68° SE 01:15:47 10° ENE visible
12 Dec - 02:49:12 10° W 02:52:49 21° NW 02:56:24 10° N night (unlit)
12 Dec - 16:59:26 10° N 17:02:56 21° NE 17:06:28 10° E daylight
12 Dec - 18:40:05 10° WNW 18:44:46 66° SSW 18:49:33 10° SE daylight
12 Dec - 20:23:58 10° WSW 20:27:41 22° SSW 20:31:25 10° SE daylight
12 Dec - 22:08:02 10° SW 22:11:16 17° S 22:14:30 10° SE visible
12 Dec - 23:50:11 10° SW 23:54:36 34° SSE 23:59:01 10° E visible
13 Dec - 01:32:15 10° WSW 01:37:00 54° NW 01:41:43 10° NE visible
13 Dec - 17:24:10 10° NNW 17:28:42 51° NE 17:33:19 10° ESE daylight
13 Dec - 19:06:43 10° W 19:11:03 34° SSW 19:15:27 10° SE daylight
13 Dec - 20:51:09 10° SW 20:54:23 17° S 20:57:36 10° SE daylight
13 Dec - 22:34:14 10° SW 22:37:58 22° SSE 22:41:42 10° ESE visible
14 Dec - 00:16:05 10° SW 00:20:54 63° SSE 00:25:42 10° ENE visible
14 Dec - 01:59:01 10° W 02:02:48 23° NW 02:06:35 10° N visible
14 Dec - 16:09:39 10° N 16:12:56 19° NE 16:16:15 10° E daylight
14 Dec - 17:50:02 10° WNW 17:54:43 71° SW 17:59:30 10° SE daylight
14 Dec - 19:33:49 10° WSW 19:37:34 22° SSW 19:41:21 10° SE daylight
14 Dec - 21:17:57 10° SW 21:21:09 17° S 21:24:21 10° SE visible
14 Dec - 23:00:10 10° SW 23:04:31 32° SSE 23:08:52 10° E visible
15 Dec - 00:42:11 10° WSW 00:46:57 60° NW 00:51:43 10° NE visible
15 Dec - 16:34:13 10° NNW 16:38:41 46° NE 16:43:13 10° ESE daylight
15 Dec - 18:16:37 10° W 18:20:58 36° SSW 18:25:25 10° SE daylight
15 Dec - 20:01:01 10° SW 20:04:16 18° S 20:07:30 10° SE daylight
15 Dec - 21:44:13 10° SW 21:47:51 21° SSE 21:51:31 10° ESE visible
15 Dec - 23:26:03 10° SW 23:30:50 59° SSE 23:35:37 10° ENE visible
16 Dec - 01:08:50 10° WSW 01:12:47 25° NW 01:16:43 10° N visible
16 Dec - 15:19:55 10° N 15:22:56 17° NE 15:25:59 10° E daylight
16 Dec - 16:59:58 10° WNW 17:04:40 77° SW 17:09:27 10° SE daylight
16 Dec - 18:43:40 10° WSW 18:47:28 23° SSW 18:51:18 10° SE daylight
16 Dec - 20:27:53 10° SW 20:31:01 17° S 20:34:11 10° SE daylight
16 Dec - 22:10:09 10° SW 22:14:25 30° SSE 22:18:42 10° E visible
16 Dec - 23:52:07 10° WSW 23:56:55 65° NW 00:01:42 10° NE visible
17 Dec - 15:44:17 10° NNW 15:48:40 42° NE 15:53:08 10° ESE daylight
17 Dec - 17:26:30 10° W 17:30:54 38° SSW 17:35:23 10° SE daylight
17 Dec - 19:10:53 10° SW 19:14:09 18° S 19:17:25 10° SE daylight
17 Dec - 20:54:11 10° SW 20:57:45 20° SSE 21:01:20 10° ESE daylight
17 Dec - 22:36:02 10° SW 22:40:46 54° SSE 22:45:31 10° ENE visible
18 Dec - 00:18:42 10° WSW 00:22:47 27° NW 00:26:50 10° N visible
18 Dec - 14:30:13 10° NNE 14:32:57 15° NE 14:35:42 10° E daylight
18 Dec - 16:09:57 10° NW 16:14:38 83° SW 16:19:24 10° SE daylight
18 Dec - 17:53:31 10° WSW 17:57:22 24° SSW 18:01:15 10° SE daylight
18 Dec - 19:37:48 10° SW 19:40:54 17° S 19:44:01 10° SE daylight
18 Dec - 21:20:08 10° SW 21:24:20 29° SSE 21:28:32 10° E visible
18 Dec - 23:02:03 10° WSW 23:06:52 71° NW 23:11:41 10° NE visible
19 Dec - 00:47:19 10° WNW 00:48:25 11° NW 00:49:31 10° NW visible
19 Dec - 14:54:22 10° NNW 14:58:39 38° NE 15:03:02 10° ESE daylight
19 Dec - 16:36:24 10° W 16:40:50 41° SSW 16:45:21 10° SE daylight
19 Dec - 18:20:45 10° SW 18:24:01 18° S 18:27:20 10° SE daylight
19 Dec - 20:04:09 10° SW 20:07:38 20° SSE 20:11:08 10° ESE daylight
19 Dec - 21:46:00 10° SW 21:50:42 50° SSE 21:55:24 10° ENE visible
19 Dec - 23:28:33 10° WSW 23:32:45 30° NW 23:36:56 10° NNE visible
20 Dec - 13:40:35 10° NNE 13:42:58 14° NE 13:45:21 10° E daylight
20 Dec - 15:19:55 10° NW 15:24:36 90° SE 15:29:21 10° SE daylight
20 Dec - 17:03:23 10° WSW 17:07:16 25° SSW 17:11:13 10° SE daylight
20 Dec - 18:47:43 10° SW 18:50:47 17° S 18:53:52 10° SE daylight
20 Dec - 20:30:08 10° SW 20:34:14 27° SSE 20:38:22 10° E daylight
20 Dec - 22:12:00 10° SW 22:16:50 78° NW 22:21:39 10° NE visible
20 Dec - 23:56:37 10° WNW 23:58:25 12° NW 00:00:14 10° NNW visible
21 Dec - 14:04:26 10° NNW 14:08:39 34° NE 14:12:55 10° ESE daylight
21 Dec - 15:46:18 10° WNW 15:50:46 44° SSW 15:55:19 10° SE daylight
21 Dec - 17:30:36 10° SW 17:33:55 18° S 17:37:15 10° SE daylight
21 Dec - 19:14:07 10° SW 19:17:31 19° S 19:20:57 10° ESE daylight
21 Dec - 20:55:59 10° SW 21:00:37 47° SSE 21:05:17 10° ENE daylight
21 Dec - 22:38:26 10° WSW 22:42:43 33° NW 22:47:01 10° NNE visible
